| time (UTC) | temp F | wind direction | speed knots | gust knots | rain 1hr in | rain 24hr in | rain mn in | humidity % | barometer mb |
| 20260504214514 | 73 | 309 | 1.7 | 9.6 | 0.00 | 0.00 | 0.00 | 39 | 1011.3 |
| 20260504213014 | 74 | 304 | 1.7 | 7.0 | 0.00 | 0.00 | 0.00 | 39 | 1011.3 |
| 20260504211512 | 73 | 261 | 2.6 | 8.7 | 0.00 | 0.00 | 0.00 | 37 | 1011.4 |
| 20260504210018 | 73 | 275 | 1.7 | 9.6 | 0.00 | 0.00 | 0.00 | 39 | 1011.3 |
| 20260504204511 | 73 | 269 | 3.5 | 10.4 | 0.00 | 0.00 | 0.00 | 38 | 1011.3 |
| 20260504203010 | 73 | 279 | 1.7 | 7.8 | 0.00 | 0.00 | 0.00 | 37 | 1011.6 |
| 20260504201507 | 73 | 293 | 3.5 | 8.7 | 0.00 | 0.00 | 0.00 | 41 | 1011.7 |
| 20260504200004 | 72 | 304 | 1.7 | 10.4 | 0.00 | 0.00 | 0.00 | 39 | 1012.0 |
| 20260504194503 | 72 | 287 | 4.3 | 13.0 | 0.00 | 0.00 | 0.00 | 37 | 1012.2 |
| 20260504193111 | 72 | 259 | 1.7 | 9.6 | 0.00 | 0.00 | 0.00 | 40 | 1012.5 |
| 20260504193003 | 72 | 61 | 2.6 | 9.6 | 0.00 | 0.00 | 0.00 | 39 | 1012.5 |
| 20260504191612 | 72 | 297 | 3.5 | 8.7 | 0.00 | 0.00 | 0.00 | 40 | 1012.7 |
| 20260504190056 | 72 | 273 | 1.7 | 10.4 | 0.00 | 0.00 | 0.00 | 41 | 1012.8 |
| 20260504184553 | 72 | 233 | 1.7 | 11.3 | 0.00 | 0.00 | 0.00 | 39 | 1013.1 |
| 20260504183053 | 72 | 256 | 6.1 | 13.9 | 0.00 | 0.00 | 0.00 | 40 | 1013.4 |
| 20260504181551 | 72 | 80 | 1.7 | 11.3 | 0.00 | 0.00 | 0.00 | 42 | 1013.6 |
| 20260504180048 | 71 | 244 | 3.5 | 7.8 | 0.00 | 0.00 | 0.00 | 41 | 1013.8 |
| 20260504174542 | 71 | 269 | 4.3 | 9.6 | 0.00 | 0.00 | 0.00 | 43 | 1014.0 |
| 20260504173041 | 70 | 307 | 3.5 | 7.8 | 0.00 | 0.00 | 0.00 | 42 | 1014.1 |
| 20260504171546 | 70 | 288 | 2.6 | 7.0 | 0.00 | 0.00 | 0.00 | 38 | 1014.2 |
| 20260504081512 | 36 | 274 | 0.0 | 0.0 | 0.00 | 0.00 | 0.00 | 77 | 1017.6 |
| 20260504044537 | 46 | 285 | 0.0 | 1.7 | 0.00 | 0.00 | 0.00 | 63 | 1017.7 |
| 20260504043045 | 46 | 279 | 0.0 | 0.9 | 0.00 | 0.00 | 0.00 | 62 | 1017.7 |
| 20260504041536 | 46 | 287 | 0.0 | 1.7 | 0.00 | 0.00 | 0.00 | 61 | 1017.7 |
| 20260504040031 | 47 | 270 | 0.0 | 1.7 | 0.00 | 0.00 | 0.00 | 60 | 1017.5 |
| 20260504034530 | 47 | 293 | 0.0 | 1.7 | 0.00 | 0.00 | 0.00 | 59 | 1017.5 |
| 20260504033031 | 48 | 275 | 0.0 | 1.7 | 0.00 | 0.00 | 0.00 | 58 | 1017.5 |
| 20260504031528 | 48 | 280 | 0.0 | 0.9 | 0.00 | 0.00 | 0.00 | 55 | 1017.4 |
| 20260504030030 | 49 | 279 | 0.0 | 0.9 | 0.00 | 0.00 | 0.00 | 53 | 1017.2 |
| 20260504024528 | 49 | 262 | 0.0 | 0.9 | 0.00 | 0.00 | 0.00 | 53 | 1017.2 |
| 20260504023028 | 49 | 262 | 0.0 | 0.9 | 0.00 | 0.00 | 0.00 | 52 | 1017.1 |
| 20260504021526 | 50 | 255 | 0.0 | 0.9 | 0.00 | 0.00 | 0.00 | 49 | 1017.2 |
| 20260504020026 | 50 | 258 | 0.0 | 0.9 | 0.00 | 0.00 | 0.00 | 49 | 1017.2 |
| 20260504014533 | 51 | 261 | 0.0 | 1.7 | 0.00 | 0.00 | 0.00 | 47 | 1017.1 |
| 20260504013025 | 51 | 272 | 0.0 | 0.9 | 0.00 | 0.00 | 0.00 | 47 | 1017.0 |
| 20260504011525 | 50 | 255 | 0.0 | 0.9 | 0.00 | 0.00 | 0.00 | 49 | 1016.8 |
| 20260504010023 | 49 | 256 | 0.0 | 0.9 | 0.00 | 0.00 | 0.00 | 50 | 1016.7 |
| 20260504004523 | 50 | 268 | 0.0 | 0.9 | 0.00 | 0.00 | 0.00 | 50 | 1016.8 |
| 20260504003030 | 50 | 268 | 0.0 | 0.9 | 0.00 | 0.00 | 0.00 | 49 | 1016.6 |
| 20260504001521 | 52 | 271 | 0.0 | 0.9 | 0.00 | 0.00 | 0.00 | 47 | 1016.4 |
| 20260504000021 | 53 | 259 | 0.0 | 0.9 | 0.00 | 0.00 | 0.00 | 45 | 1016.3 |
| 20260503234520 | 56 | 269 | 0.0 | 1.7 | 0.00 | 0.00 | 0.00 | 41 | 1016.1 |
| 20260503233019 | 57 | 250 | 0.9 | 3.5 | 0.00 | 0.00 | 0.00 | 39 | 1015.9 |
| 20260503231523 | 58 | 256 | 0.9 | 4.3 | 0.00 | 0.00 | 0.00 | 38 | 1016.0 |
| 20260503230017 | 58 | 240 | 0.9 | 6.1 | 0.00 | 0.00 | 0.00 | 36 | 1015.9 |
| 20260503224517 | 59 | 327 | 2.6 | 9.6 | 0.00 | 0.00 | 0.00 | 37 | 1016.0 |
| 20260503223018 | 60 | 267 | 1.7 | 5.2 | 0.00 | 0.00 | 0.00 | 37 | 1015.9 |
| 20260503221516 | 60 | 266 | 3.5 | 7.8 | 0.00 | 0.00 | 0.00 | 35 | 1016.0 |
| 20260503220015 | 60 | 227 | 1.7 | 7.0 | 0.00 | 0.00 | 0.00 | 36 | 1015.9 |